Location: Belfaux
(46.8216°N, 7.1069°E)
Time: 03:09:08
(UTC+00:00)

Daily predictions for brighter satellites

Satellite Brightness Start Highest point End
(mag) Time Altitude Azimuth Time Altitude Azimuth Time Altitude Azimuth
ATLAS 5 CENTAUR R/B 4.4 02:21:52 76° ENE 02:21:52 76° ENE 02:51:28 10° SE
SL-16 R/B 4.2 02:44:16 23° NE 02:44:16 23° NE 02:48:14 10° E
CZ-4C R/B 4.5 02:52:34 18° NNE 02:52:34 18° NNE 02:54:47 10° NNE
Cosmos 2322 Rocket 4.2 02:51:14 23° NE 02:51:24 23° NE 02:55:51 10° E
Lacrosse 5 4.2 03:00:40 20° NE 03:00:40 20° NE 03:02:12 10° NE
COSMOS 2455 3.9 03:06:43 40° ENE 03:06:43 40° ENE 03:11:56 10° ESE
CZ-2C R/B 4.2 03:10:22 10° NE 03:14:31 28° E 03:14:53 27° ESE
ATLAS CENTAUR R/B 4.4 03:19:17 12° SE 03:21:55 17° ESE 03:24:59 10° ENE
NOSS 3-3 (A) 4.2 03:26:37 63° ESE 03:26:37 63° ESE 03:32:56 10° NE
NOSS 3-3 (C) 4.2 03:26:41 62° ESE 03:26:41 62° ESE 03:33:03 10° NE
SL-4 R/B 3.1 03:48:12 52° ENE 03:48:12 52° ENE 03:52:03 10° ESE
Meteor 2-20 4.4 03:41:33 10° N 03:47:46 81° E 03:53:54 10° SSE
Cosmos 839 Rocket 4.0 03:54:08 65° NW 03:54:08 65° NW 04:00:13 10° NNE
H-2A R/B 4.1 03:50:28 10° NNE 03:52:43 29° NNE 03:52:43 29° NNE
Cosmos 1447 Rocket 4.4 03:48:52 10° N 03:55:15 80° W 04:01:34 10° S
Cosmos 2082 Rocket 3.2 03:58:26 33° N 03:58:26 33° N 04:01:52 10° NNE
ATLAS 2AS CENTAUR R/B 3.0 03:53:41 37° NNW 03:57:03 73° NE 04:04:10 10° SE
Gbstr 26 Del rocket 4.2 04:00:32 33° ENE 04:00:32 33° ENE 04:02:41 10° ENE
COBE Rocket 4.3 03:59:39 10° SSE 04:04:43 64° ENE 04:09:22 12° N
Cosmos 1766 Rocket 4.4 04:01:42 10° SSE 04:05:52 48° E 04:10:04 10° NNE
Cosmos 1833 Rocket 4.2 04:09:16 22° NNW 04:09:16 22° NNW 04:11:47 10° N
SJ 16-02 2.7 04:10:01 29° N 04:10:01 29° N 04:12:15 10° NNE
Cosmos 1898 Rocket 3.5 04:11:59 60° NNW 04:11:59 60° NNW 04:16:42 10° NNE
CZ-4B R/B 4.5 04:08:11 10° NNE 04:09:43 24° NNE 04:09:43 24° NNE
Okean 3 Rocket 3.7 04:09:41 10° S 04:14:11 77° E 04:18:41 10° NNE
STARLINK-35 4.5 04:15:51 41° SSE 04:16:28 44° SE 04:20:26 10° ENE
Cosmos 1937 Rocket 3.3 04:16:37 61° SW 04:17:29 78° WNW 04:22:39 10° NNE
COSMO-SKYMED 1 3.4 04:13:34 10° SE 04:17:44 49° ENE 04:21:54 10° N
STARLINK-51 4.4 04:17:30 41° S 04:18:10 46° SE 04:22:09 10° ENE
STARLINK-30 4.4 04:19:08 41° S 04:19:52 47° SE 04:23:52 10° ENE
STARLINK-33 4.4 04:20:42 42° S 04:21:29 48° SE 04:25:30 10° ENE
USA 234 4.1 04:15:50 10° ENE 04:21:42 36° N 04:23:58 29° NW
Cosmos 1408 3.7 04:19:00 10° SSE 04:22:31 44° E 04:26:01 10° NNE
STARLINK-61 3.6 04:22:55 71° SSE 04:23:01 72° SSE 04:27:02 10° ENE
Cosmos 1153 Rocket 4.4 04:17:04 10° SSW 04:23:07 62° WNW 04:29:14 10° N
STARLINK-50 4.3 04:22:16 42° S 04:23:07 50° SE 04:27:09 10° ENE
STARLINK-26 4.0 04:23:30 51° S 04:24:05 57° SE 04:28:07 10° ENE
Cosmos 2360 Rocket 2.9 04:19:52 15° NNW 04:24:23 51° ENE 04:29:54 10° SE
Meteor PRIRODA 4.0 04:20:50 10° NNE 04:24:29 62° E 04:28:05 10° S
Cosmos 2173 Rocket 4.0 04:19:52 10° S 04:26:08 85° E 04:32:20 10° N
STARLINK-56 4.2 04:25:30 42° S 04:26:27 52° SE 04:30:30 10° ENE
Starlink (trailer) 4.2 04:27:17 41° SSW 04:28:18 54° SE 04:32:22 10° ENE
SL-16 R/B 2.1 04:26:12 38° NW 04:28:26 73° WSW 04:34:04 10° SSE
STARLINK-38 4.1 04:28:42 41° SSW 04:29:46 56° SE 04:33:50 10° ENE
Cosmos 1980 Rocket 4.2 04:33:45 12° SSW 04:33:45 12° SSW 04:34:15 10° SSW
STARLINK-65 4.1 04:30:19 41° SSW 04:31:27 57° SE 04:35:31 10° ENE
Cosmos 2061 Rocket 4.3 04:25:29 10° S 04:31:39 70° E 04:37:50 10° NNE
PSLV R/B 4.2 04:28:55 10° NNE 04:32:48 64° ESE 04:36:43 10° S
Cosmos 2322 Rocket 2.1 04:33:06 30° NW 04:36:02 74° WSW 04:41:42 10° SSE
STARLINK-69 3.9 04:35:08 40° SSW 04:36:25 63° SE 04:40:32 10° ENE
STARLINK-66 3.9 04:36:38 38° SSW 04:38:01 63° SE 04:42:07 10° ENE
Cosmos 2150 Rocket 4.4 04:33:09 10° S 04:38:35 70° ESE 04:43:58 10° NNE
STARLINK-41 3.9 04:38:16 38° SSW 04:39:41 65° SE 04:43:49 10° ENE
CZ-4C R/B 4.2 04:37:44 15° NNW 04:40:10 18° N 04:44:49 10° NE
Lacrosse 5 2.8 04:39:53 30° NW 04:40:38 32° NNW 04:45:11 10° NE
STARLINK-46 3.9 04:41:04 36° NNE 04:41:04 36° NNE 04:43:42 10° E
STARLINK-64 3.8 04:39:55 37° SW 04:41:23 67° SE 04:45:30 10° ENE
PAYLOAD A 4.4 04:36:40 10° N 04:41:43 43° WNW 04:43:42 31° WSW
ALOS 3.3 04:37:37 10° NNE 04:42:09 47° E 04:46:39 10° S
STARLINK-70 3.8 04:41:26 36° SW 04:42:59 69° SSE 04:47:07 10° ENE
STARLINK-29 4.5 04:43:24 28° N 04:43:27 28° N 04:46:31 10° ENE
STARLINK-68 3.7 04:43:15 37° SW 04:44:47 73° SSE 04:48:56 10° ENE
STARLINK-58 3.7 04:44:29 35° SW 04:46:07 73° SSE 04:50:16 10° ENE
BREEZE-M DEB (TANK) 2.0 04:48:05 45° NNE 04:48:05 45° NNE 04:49:44 10° ENE
STARLINK-62 3.7 04:46:25 35° SW 04:48:05 77° SSE 04:52:14 10° ENE
STARLINK-80 3.8 04:48:36 43° NW 04:48:59 45° NNW 04:52:42 10° NE
STARLINK-63 3.7 04:47:53 33° SW 04:49:41 76° SSE 04:53:50 10° ENE
STARLINK 3.7 04:49:07 29° SW 04:51:06 73° SSE 04:55:14 10° ENE
MSX 4.5 04:46:15 10° N 04:51:17 32° WNW 04:52:20 30° W
Cosmos 2228 Rocket 4.1 04:47:42 10° N 04:52:11 50° ENE 04:56:38 10° SSE
COSMOS 2455 3.2 04:49:55 30° WNW 04:52:17 43° WSW 04:57:54 10° S
FALCON 9 DEB 4.4 04:51:55 27° NNW 04:52:21 28° N 04:55:22 10° ENE
Okean O Rocket 2.7 04:48:28 10° NNE 04:52:41 47° E 04:56:53 10° S
CZ-2C R/B 2.8 04:48:22 10° N 04:52:51 37° WNW 04:54:15 30° WSW
STARLINK-72 3.7 04:50:57 30° SW 04:52:55 78° SSE 04:57:04 10° ENE
MOS 1-B 4.4 04:47:21 10° NNE 04:53:12 82° ESE 04:59:00 10° SSW
IDEFIX/ARIANE 42P 4.4 04:50:14 10° NNW 04:51:24 14° NNW 04:51:24 14° NNW
Cosmos 1151 Rocket 2.9 04:49:44 10° NNW 04:54:07 71° W 04:58:25 10° S
Cosmos 372 Rocket 3.9 04:49:58 10° SSW 04:55:07 89° WNW 05:00:17 10° NNE
Cosmos 1933 3.6 04:51:52 10° N 04:55:54 69° E 04:59:53 10° SSE
BREEZE-M DEB (TANK) 3.9 04:56:55 11° SSW 04:56:55 11° SSW 04:57:11 10° S
STARLINK-59 3.6 04:54:18 29° SW 04:56:20 84° SSE 05:00:29 10° ENE
STARLINK-57 3.6 04:55:54 28° SW 04:58:00 85° SE 05:02:10 10° ENE
FENGYUN 3A 4.0 04:54:47 10° NNE 05:00:13 68° ESE 05:05:35 10° S
ATLAS CENTAUR R/B 1.6 04:55:37 11° SW 05:00:22 78° NW 05:05:09 10° NE
STARLINK-28 3.5 04:59:05 27° WSW 05:01:18 89° SSE 05:05:28 10° ENE
Cosmos 1328 Rocket 3.6 04:58:11 12° NNW 05:02:04 53° W 05:06:15 10° S
Lacrosse 5 rocket 2.2 05:00:34 22° NNW 05:02:14 33° NNE 05:05:32 10° E
STARLINK-75 3.5 05:00:36 28° WSW 05:02:43 83° NNW 05:06:54 10° ENE
STARLINK-53 3.5 05:00:29 26° WSW 05:02:47 89° NNW 05:06:58 10° ENE
ASTEX 1 4.3 04:59:55 10° SW 05:09:44 - NNW 05:03:46 26° W
STARLINK-54 3.5 05:02:16 25° WSW 05:04:36 87° NW 05:08:47 10° ENE
Cosmos 1515 Rocket 3.4 05:01:26 10° NNW 05:05:47 79° W 05:10:06 10° S
SKYMED 2 3.6 05:01:38 10° S 05:05:52 53° W 05:10:09 10° NNW
STARLINK-43 4.3 05:05:21 28° NW 05:06:22 33° N 05:09:48 10° ENE
Cosmos 2322 4.1 05:00:47 10° NNW 05:06:28 63° ENE 05:12:05 10° SE
Cosmos 1892 4.2 05:08:41 19° NNW 05:08:41 19° NNW 05:10:12 10° NNW
Cosmos 1459 Rocket 4.1 05:01:12 10° SSW 05:07:12 50° WNW 05:13:19 10° N
COSMOS 2487 2.3 05:04:01 10° SSW 05:07:25 61° WNW 05:10:53 10° NNE
NOSS 3-4 (A) 3.9 05:02:30 18° NW 05:07:59 64° WSW 05:15:35 10° SSE
Cosmos 1606 2.7 05:04:13 10° N 05:08:02 79° E 05:11:51 10° SSE
NOSS 3-4 (C) 3.9 05:02:36 18° NW 05:08:05 64° WSW 05:15:41 10° SSE
STARLINK-37 3.5 05:06:49 23° WSW 05:09:20 82° NNW 05:13:32 10° ENE
STARLINK-55 3.5 05:07:00 22° WSW 05:09:35 83° NNW 05:13:45 10° ENE
STARLINK-34 3.5 05:08:43 22° WSW 05:11:17 80° NNW 05:15:27 10° ENE
Cosmos 1743 Rocket 3.6 05:07:05 10° S 05:11:23 79° E 05:15:44 10° NNE
CZ-4B R/B 3.5 05:06:00 10° NNE 05:11:23 69° ESE 05:16:52 10° S
STARLINK-24 3.5 05:09:21 22° WSW 05:11:59 80° NNW 05:16:10 10° ENE
STARLINK-81 3.5 05:09:59 20° WSW 05:12:46 83° NNW 05:16:56 10° ENE
Cosmos 2219 Rocket 3.2 05:09:05 10° NNW 05:14:31 45° NE 05:19:55 10° SE
Cosmos 2333 Rocket 3.2 05:09:26 10° NNW 05:15:02 47° NE 05:20:35 10° SE
STARLINK-77 3.5 05:13:11 19° WSW 05:16:05 80° NNW 05:20:15 10° ENE
Meteor 1-31 Rocket 4.1 05:13:35 10° NNW 05:15:45 21° NW 05:15:45 21° NW
Cosmos 1725 Rocket 3.9 05:11:18 10° SSW 05:17:33 73° W 05:23:53 10° N
STARLINK-25 3.5 05:14:52 18° WSW 05:17:50 78° NNW 05:22:00 10° ENE
Cosmos 2016 Rocket 4.0 05:12:21 10° SSW 05:18:31 58° WNW 05:24:47 10° N
STARLINK-71 3.6 05:16:46 19° WSW 05:19:41 72° NNW 05:23:51 10° ENE
DMSP B5D1-3 4.5 05:14:50 10° SSE 05:19:58 87° WSW 05:25:09 10° NNW
Cosmos 1048 Rocket 4.1 05:14:50 10° NNW 05:20:10 64° WSW 05:25:26 10° S
Cosmos 2298 Rocket 4.2 05:15:14 10° SW 05:20:23 51° WNW 05:25:35 10° NNE
Cosmos 1825 2.3 05:17:14 10° SSW 05:20:54 49° WNW 05:24:35 10° N
STARLINK-79 3.5 05:17:56 17° WSW 05:21:01 75° NNW 05:25:11 10° ENE
Cosmos 1484 Rocket 3.3 05:18:27 10° N 05:22:11 37° WNW 05:25:53 10° SW
STARLINK-78 3.6 05:19:36 17° WSW 05:22:46 73° NNW 05:26:56 10° ENE
STARLINK-48 4.1 05:21:14 22° WNW 05:23:13 39° NNW 05:26:55 10° ENE
Cosmos 2151 4.0 05:21:55 10° SW 05:25:27 24° WNW 05:29:00 10° NNW
Cosmos 1782 3.7 05:21:44 10° N 05:25:39 51° ENE 05:29:31 10° SSE
STARLINK-49 3.6 05:22:47 16° WSW 05:26:05 71° NNW 05:30:13 10° ENE
SL-4 R/B 3.0 05:23:49 19° W 05:26:54 42° SW 05:31:24 10° SSE
Cosmos 1408 Rocket 4.0 05:23:22 10° SW 05:27:22 37° WNW 05:31:26 10° N
STARLINK-27 3.6 05:24:24 15° WSW 05:27:46 69° NNW 05:31:54 10° ENE
Abrixas rocket 2.0 05:26:22 18° WSW 05:28:29 81° SSE 05:31:30 10° ENE
STARLINK-74 3.6 05:25:59 15° WSW 05:29:25 68° NNW 05:33:33 10° ENE
STARLINK-67 3.8 05:28:57 20° WSW 05:29:52 25° SW 05:32:06 10° SSE
H-2A R/B 4.4 05:27:25 10° NNW 05:29:16 14° NW 05:29:16 14° NW
STARLINK-39 3.6 05:27:35 14° WSW 05:31:06 66° NNW 05:35:14 10° ENE
STARLINK 3.6 05:29:12 14° WSW 05:32:46 65° NNW 05:36:54 10° ENE
STARLINK-42 3.7 05:29:56 14° WSW 05:33:27 63° NNW 05:37:35 10° ENE
Helios 1A Rocket 2.9 05:29:59 10° N 05:34:03 62° WNW 05:38:04 10° SSW
Cosmos 1500 Rocket 3.5 05:30:08 10° SSW 05:34:33 66° W 05:39:00 10° N
STARLINK-21 3.7 05:32:17 13° WSW 05:36:00 63° NNW 05:40:07 10° ENE
PAYLOAD B 4.3 05:31:41 10° N 05:37:05 58° WNW 05:42:27 10° SSW
STARLINK-45 3.7 05:34:35 13° W 05:38:13 58° NNW 05:42:20 10° ENE
Meteor 1-26 Rocket 4.2 05:33:39 10° NNW 05:39:21 68° W 05:44:50 10° S
Cosmos 1400 Rocket 2.9 05:36:19 10° NNW 05:40:20 57° W 05:44:15 10° S
Tsikada Rocket 4.2 05:34:40 10° NNW 05:40:50 51° W 05:46:54 10° SSW
STARLINK-76 3.7 05:37:12 11° WSW 05:41:06 59° NNW 05:45:12 10° ENE
Cosmos 2082 Rocket 4.0 05:40:19 11° NW 05:42:02 12° NNW 05:44:06 10° N
H-2A R/B 3.8 05:38:28 10° NNE 05:42:06 48° E 05:45:40 10° S
Cosmos 1437 3.4 05:39:56 10° SW 05:42:39 29° WNW 05:45:25 10° N
STARLINK 3.7 05:38:49 11° WSW 05:42:47 58° NNW 05:46:53 10° ENE
Sich 1 4.1 05:40:12 10° SSE 05:44:18 50° E 05:48:27 10° NNE
STARLINK-32 3.8 05:40:24 10° WSW 05:44:25 57° NNW 05:48:32 10° ENE
SL-16 R/B 4.5 05:40:58 10° N 05:44:38 17° NE 05:48:17 10° E
Gbstr 26 Del rocket 3.4 05:43:05 13° WNW 05:46:04 38° N 05:49:38 10° ENE
STARLINK-40 3.8 05:42:01 10° W 05:46:05 56° NNW 05:50:11 10° ENE
SJ 16-02 3.3 05:47:04 10° NW 05:47:19 10° NW 05:47:55 10° NW
ATLAS 2AS CENTAUR R/B 3.7 05:41:10 10° NW 05:47:22 29° WSW 05:53:13 10° SSW
STARLINK-44 3.8 05:43:39 10° W 05:47:43 55° NNW 05:51:48 10° ENE
STARLINK-36 3.8 05:45:22 10° W 05:49:27 54° NNW 05:53:32 10° ENE
SJ-7 4.4 05:47:13 10° N 05:51:23 64° WNW 05:55:26 10° SSW
COSMO-SKYMED 1 4.0 05:51:11 10° SW 05:54:11 18° W 05:57:11 10° NW
STARLINK-35 3.9 05:52:00 10° W 05:56:03 51° NNW 06:00:06 10° ENE
STARLINK-60 3.9 05:53:15 10° NW 05:56:28 42° NNE 05:59:43 10° E
STARLINK-51 3.9 05:53:44 10° W 05:57:46 50° NNW 06:01:50 10° ENE
Cosmos 1408 4.3 05:55:43 10° WSW 05:57:48 14° WNW 05:59:52 10° NNW
STARLINK-30 3.9 05:55:27 10° W 05:59:29 49° NNW 06:03:32 10° ENE
Cosmos 972 Rocket 4.1 05:54:30 10° SSW 05:59:34 60° WNW 06:05:12 10° NNE
STARLINK-33 4.0 05:57:05 10° W 06:01:07 49° NNW 06:05:09 10° ENE
Cosmos 1269 Rocket 4.1 05:56:09 10° NNW 06:01:23 60° WSW 06:06:34 10° S
STARLINK-61 4.2 05:58:36 10° W 06:02:25 40° NNW 06:06:15 10° ENE
STARLINK-50 4.0 05:58:44 10° W 06:02:46 48° NNW 06:06:48 10° ENE
STARLINK-26 4.1 05:59:37 10° W 06:03:34 44° NNW 06:07:31 10° ENE
USA 234 3.9 05:57:42 10° E 06:03:54 47° NNE 06:10:07 10° NW
Cosmos 494 Rocket 4.3 05:58:53 10° NNW 06:03:55 48° WSW 06:08:54 10° S
Envisat 4.3 06:00:42 10° NNE 06:05:35 45° E 06:10:27 10° S
STARLINK-56 4.0 06:02:07 10° W 06:06:08 47° NNW 06:10:09 10° ENE
COSMOS 2428 2.8 06:01:08 10° NNW 06:06:53 80° WSW 06:12:36 10° SSE
Okean-O 3.5 06:03:09 10° NNE 06:07:32 55° E 06:11:53 10° S
ADEOS Rocket 3.7 06:00:00 10° SSE 06:07:46 87° ENE 06:15:07 10° NNW
Starlink (trailer) 4.0 06:03:59 10° W 06:08:00 46° NNW 06:12:01 10° ENE
Cosmos 2360 Rocket 3.2 06:03:20 10° NW 06:08:05 28° WSW 06:12:50 10° SSW
STARLINK-52 4.1 06:04:49 10° NW 06:08:10 39° NNE 06:11:31 10° E
STARLINK-38 4.1 06:05:28 10° W 06:09:28 45° NNW 06:13:28 10° ENE
Feng Yun 1-1 Rocket 4.3 06:04:43 10° NNE 06:10:09 86° ESE 06:15:37 10° SSW
STARLINK-65 4.1 06:07:10 10° W 06:11:09 45° NNW 06:15:10 10° ENE
Cosmos 2251 Rocket 4.3 06:07:21 10° NNW 06:12:33 54° ENE 06:17:40 10° SE
Cosmos 2237 Rocket 3.1 06:07:09 10° NNW 06:12:42 50° ENE 06:18:10 10° SE
